User: anonymous   Login
Location: Campavaglio
(41.1333°N, 9.2333°E)
Time: 17:34:28
(UTC+00:00)
Language:

Cosmos 2084 Rocket - Orbit

View from above orbital plane
View from above orbital plane
View from above satellite
View from above satellite

Ground track
Ground track

The orbit data is extracted from the following two-line orbital elements,

1 20666U 90055D   20228.06961191 -.00000055  00000-0  12965-4 0  9994
2 20666  62.7844 248.7648 0053294 353.4335   6.6054 14.92352923633510
Epoch (UTC): 15 August 2020 01:40:14
Eccentricity: 0.0053294
inclination: 62.7844°
perigee height: 553 km
apogee height: 628 km
right ascension of ascending node: 248.7648°
argument of perigee: 353.4335°
revolutions per day: 14.92352923
mean anomaly at epoch: 6.6054°
orbit number at epoch: 63351

The dashed part of the orbit path shows where the satellite is in the earth's shadow,  

DLR